FENGYUN 1C DEB, 37415

Orbit data source: Space-Track

FENGYUN 1C DEB, 37415 is space debris in SSO originally from a launch on Mon, 10 May 1999 UTC launched from the Taiyaun Space Center, China (TSC). Fengyun 1C debris stems from the Chinese weather satellite Fengyun-1C, which was intentionally destroyed by a Chinese anti-satellite missile in 2007. This event dramatically increased the amount of space debris, with thousands of trackable fragments posing hazards to satellites and human spaceflight. The Fengyun 1C debris cloud has become a focal point in discussions about space sustainability and the need for international regulations to prevent the creation of new debris.

Loading next visibility...
Identifier
37415, 1999-025EGH
Orbit
SSO
Country
Flag of CNCN / PRC
Related business
Manufacturer
Unknown
Mission
Spacecraft
Bus & Motor
Unknown
Mass
Unknown
Launch date (UTC)
1999-05-10 (27 years ago)
Launch vehicle
Unknown
Launch site
Taiyaun Space Center, China (TSC)
Object type
Payload
Rocket body
Debris
Shape & HBR
Unknown shape, 0.1 m
Radar Cross Section
Small (<0.1 m²)

Expand to show TLE details & history
Last TLE update: 1 week ago

TLE from 1 week ago
0 FENGYUN 1C DEB
1 37415U 99025EGH 25305.55611780  .00000402  00000-0  52320-3 0  9994
2 37415  98.9805  57.2341 0283788 287.4820  69.5488 13.52040970617656
Epoch: 2025-11-01T13:20Z
TLE epoch observation values (Epoch: 2025-11-01T13:20:48.577Z)
Latitude
-0.00004°
Longitude
175.9472°
Altitude
999.099 km
Speed
7.386 km/s
True Right ascension
03h 48m 56s
True Declination
0° 00' 00"
Sunlit
Object was in full shadow at epoch
Visualization orbit readout
Latitude
Unknown
Longitude
Unknown
Altitude
Unknown
Speed
Unknown
Apparent Right ascension
Unknown
Apparent Declination
Unknown
Sunlit
N/A
Visualization observer readout
Local Sidereal Time
01:23:29
Azimuth
Unknown
Elevation
Unknown
Doppler factor
Unknown
Orbital elements
Apogee altitude
1,273.161 km
Perigee altitude
850.876 km
Semi-major axis
7,440.155 km
Eccentricity
0.02838
Inclination
98.9805°
RAAN
57.2341°
Arg. of periapsis
287.482°
True anomaly
72.63253°
Mean anomaly
69.5488°
Eccentric anomaly
71.087°
Mean motion
3.38197 °/min
Orbital period
106.45 mins
BSTAR
0.0005232
Loading maneuver chart data...
Computing Atmospheric mass density...

Documentation

Showing up to 5 results
|